Location: Ernsee
(50.8780°N, 12.0389°E)
Time: 02:36:14
(UTC+00:00)

Cosmos 1844 - Pass Details

Date: 20 January 2020
Orbit: 824 x 866 km, 70.9° (Epoch: 22 February)

Event Time Altitude Azimuth Distance (km) Brightness Sun altitude
Exits shadow 06:24:57 - 330° (NNW) 3,283 6.3 -6.3°
Reaches altitude 10° 06:27:08 10° 332° (NNW) 2,447 5.6 -6.0°
Maximum altitude 06:32:44 76° 58° (ENE) 856 3.9 -5.2°
Drops below altitude 10° 06:38:17 10° 145° (SE) 2,421 7.3 -4.4°
Sets 06:40:43 0° 147° (SSE) 3,351 8.0 -4.0°
